Regional Weather Roundup
Issued by NWS Austin/San Antonio, TX

Home | Current Version | Previous Version | Text Only | Print | Product List | Glossary On
Versions: 1 2 3 4 5 6 7 8 9 10 11 12 13 14 15 16 17 18 19 20 21 22 23 24 25 26 27 28 29 30 31 32 33 34 35 36 37 38 39 40 41 42 43 44 45 46 47 48 49 50
000
ASUS44 KEWX 281612
RWREWX
SOUTH TEXAS REGIONAL WEATHER ROUNDUP
NATIONAL WEATHER SERVICE AUSTIN/SAN ANTONIO TX
1100 AM CDT WED JUN 28 2017

NOTE: "FAIR" INDICATED FEW OR NO CLOUDS BELOW 12,000 FEET WITH NO
SIGNIFICANT WEATHER AND/OR OBSTRUCTIONS TO VISIBILITY.

* - THESE STATIONS ARE NOT NWS OR FAA STATIONS...AND ARE NOT SUBJECT
    TO NWS AND FAA QUALITY CONTROL.

TXZ171-172-183>190-281700-
TEXAS HILL COUNTRY AND EDWARDS PLATEAU

CITY           SKY/WX    TMP DP  RH WIND       PRES   REMARKS
JUNCTION       CLOUDY    77  67  71 VRB3      29.97F
*LLANO         CLOUDY    77  68  73 CALM      29.99F
BURNET         CLOUDY    78  67  68 S5        29.99S
*HORSESHOE BAY CLOUDY    79  68  69 MISG      29.97S
*KERRVILLE     MOSUNNY   79  70  74 SE3       29.97F
*FREDERICKSBRG PTSUNNY   76  65  67 E5        29.98S
*ROCKSPRINGS   CLOUDY    75  73  94 SE7       30.02S
*BOERNE STAGE  CLOUDY    73  68  83 NE3       29.98F
*CASTROVILLE   CLOUDY    82  68  63 CALM      29.96S
HONDO          PTSUNNY   82  70  66 VRB3      29.94F
*UVALDE        PTSUNNY   78  70  74 CALM      29.96S
DEL RIO        CLOUDY    79  70  74 S12       29.93S
LAUGHLIN AFB   PTSUNNY   79  70  73 S9        29.93F
CARRIZO SPRGS  CLOUDY    79  70  73 S3        29.92S
*EAGLE PASS    CLOUDY    79  70  73 VRB3      29.94S
$$

TXZ173-191>194-202-209-217>225-228-281700-
CENTRAL AND SOUTH CENTRAL TEXAS

CITY           SKY/WX    TMP DP  RH WIND       PRES   REMARKS
GEORGETOWN     CLOUDY    79  70  73 E6        29.95F
AUSTIN/BERGSTM PTSUNNY   83  72  69 SE3       29.93F
AUSTIN/MABRY   PTSUNNY   81  71  71 VRB5      29.95S
*AUSTIN/EXEC     N/A     81  72  74 E5        29.95F
*LAGO VISTA    CLOUDY    79  70  73 SE5       29.98S
SAN MARCOS     PTSUNNY   81  73  78 E5        29.95F
NEW BRAUNFELS  MOSUNNY   83  72  69 VRB3      29.93S
RANDOLPH AFB   PTSUNNY   81  74  79 NE6       29.94F
PT SAN ANTONIO MOSUNNY   81  71  70 E6        29.93S
SAN ANTONIO    CLOUDY    79  70  74 NE6       29.95S
STINSON FIELD  CLOUDY    81  70  69 E5        29.92F
*LA GRANGE     PTSUNNY   83  74  73 E3        29.91S HX  90
*GIDDINGS      PTSUNNY   82  70  68 E6        29.95S
*GONZALES      PTSUNNY   84  74  70 NE3       29.91F HX  91
$$

TXZ163>164-176>182-195>201-210>213-226-227-235-281700-
SOUTHEAST TEXAS

CITY           SKY/WX    TMP DP  RH WIND       PRES   REMARKS
COLLEGE STN    CLOUDY    76  72  87 E10       29.95S
*BRYAN         CLOUDY    79  74  84 E7        29.97S
*CALDWELL      NOT AVBL
*CROCKETT      MOSUNNY   82  72  69 E5        29.99S
*BRENHAM       CLOUDY    82  73  73 E7        29.95S
HUNTSVILLE     MOSUNNY   83  70  64 E6        29.96F
CONROE         PTSUNNY   82  72  71 E10       29.95R
HOUSTON BUSH   PTSUNNY   82  73  74 E10       29.93S
HOUSTON HOBBY  MOSUNNY   85  73  67 E12       29.91S HX  91
*HOUSTON SW AP PTSUNNY   84  75  73 E8        29.92S HX  91
PEARLAND       MOSUNNY   86  73  65 E14       29.93R HX  93
HOUSTON HOOKS  PTSUNNY   85  73  67 E10G17    29.93S HX  91
ELLINGTON FLD  PTSUNNY   86  73  66 E10       29.94R HX  93
SUGAR LAND     LGT RAIN  81  74  79 E7        29.91S
*HOUSTON EXEC  MOSUNNY   84  73  70 E8        29.93F HX  91
*CLEVELAND MUN PTSUNNY   83  73  73 E5        29.96R
*WHARTON       PTSUNNY   83  71  67 NE7       29.91S
*COLUMBUS      CLOUDY    80  73  78 NE3       29.93S
*EAGLE LAKE    PTSUNNY   83  76  79 E7        29.92S HX  91
$$

TXZ214>216-236>238-281700-
THE UPPER TEXAS COAST

CITY           SKY/WX    TMP DP  RH WIND       PRES   REMARKS
*ORANGE        CLOUDY    81  74  78 E12       29.97R
PORT ARTHUR    NOT AVBL
GALVESTON      CLOUDY    82  77  84 E10       29.92S HX  90
ANGLETON       CLOUDY    83  77  82 E10       29.90S HX  92
*BAY CITY      PTSUNNY   84  75  75 E7        29.89S HX  91
PALACIOS       MOSUNNY   81  74  79 E10       29.88R
$$

TXZ229>234-239>247-281700-
TEXAS COASTAL BEND AND RIO GRANDE PLAINS

CITY           SKY/WX    TMP DP  RH WIND       PRES   REMARKS
VICTORIA       MOSUNNY   85  75  72 NE9       29.89S HX  93
*BEEVILLE      PTSUNNY   86  75  71 NE8       29.90S HX  95
ROCKPORT       CLOUDY    86  74  67 NE7       29.87F HX  94
*PORT ARANSAS  CLOUDY    82  74  76 E8        29.88S
*PORT LAVACA   MOSUNNY   83  76  79 CALM      29.89R HX  92
*INGLESIDE     PTSUNNY   84  75  75 MISG      29.88R HX  92
CORPUS CHRISTI PTSUNNY   88  76  67 VRB6      29.89S HX  99
CORPUS NAS     PTSUNNY   84  77  79 N8        29.88S HX  94
*ROBSTOWN      PTSUNNY   84  75  74 N3        29.90S HX  93
ALICE          MOSUNNY   83  72  69 NE7       29.89S
KINGSVILLE NAS PTSUNNY   84  77  79 N12       29.89S HX  94
COTULLA        SUNNY     82  70  66 SE5       29.92F
*FAITH RANCH   CLOUDY    81  72  74 CALM      29.93F
LAREDO         MOSUNNY   82  71  69 VRB7      29.92S
$$

TXZ248>255-281700-
DEEP SOUTH TEXAS

CITY           SKY/WX    TMP DP  RH WIND       PRES   REMARKS
BROWNSVILLE    PTSUNNY   85  77  77 SW5       29.87S HX  95
PORT ISABEL    MOSUNNY   88  76  67 VRB5      29.86S HX  99
*SOUTH PADRE   NOT AVBL
HARLINGEN      SUNNY     86  75  69 W5        29.86F HX  95
*HEBBRONVILLE  CLOUDY    82  70  66 CALM      29.93R
MCALLEN        PTSUNNY   90  74  59 CALM      29.88F HX  99
*WESLACO       CLOUDY    84  75  72 CALM      29.87S HX  92
FALFURRIAS     PTSUNNY   85  73  66 N5        29.89S HX  91
EDINBURG       PTSUNNY   89  71  56 NW6       29.88S HX  95
*ZAPATA        PTSUNNY   84  70  62 CALM      29.90S
$$

TXZ213>215-236>238-242>244-246-247-251-254-255-281700-
CMAN STATIONS

STATION/POSITION TIME  TEMP    WIND        PRES    WAVE
                       AIR SEA DIR/SP/G            HT/PER
                 (UTC) (F)     (DEG/KT/KT) (MB)    (FT/S)
SABINE PASS      1548   79 84  110/ 20/ 24 1015.3
SEA RIM ST PARK  1600   81     100/ 16/ 20 1014.3
NORTH JETTY/GLS  1548           70/ 10/ 11   N/A
EAGLE POINT      1548   80 82  100/  9/ 11 1013.3
MORGANS POINT    1548   80 83   80/  8/ 13 1013.1
MISSION/ARANSAS  1500           40/ 11       N/A
PORT O`CONNOR    1548   80      50/  9/ 10 1011.5
PORT ARANSAS     1600   81 84   40/  8/  9 1011.9
MALAQUITE BEACH  1548   82 85  340/  8/  9 1011.2
PORT ISABEL      1548   85 86              1011.4
$$



USA.gov is the U.S. government's official web portal to all federal, state and local government web resources and services.